When you browse on this site, cookies collect data to enhance your experience and personalize the content and advertising you see.
Visit our Privacy Policy to learn more. By continuing to use the site, you agree to this use of cookies and data.
  • In Austria
  • List of Countries
  • For 7 days
  • Water Temperature
  • Weather Map
  • News
  • Weather Widgets
  • user-avatar
    Login

    Hourly Weather Soacha

    Today, 13 November, Wednesday

    Time Temperature Precipitation Wind Pressure Humidity
    00:00 +13°C° 0.7 mm 1 mps 559 mmHg 91%
    01:00 +12°C° 0.7 mm 0 mps 559 mmHg 92%
    02:00 +12°C° 0.2 mm 0 mps 559 mmHg 92%
    03:00 +11°C° 0.2 mm 0 mps 559 mmHg 92%
    04:00 +11°C° 0.2 mm 0 mps 558 mmHg 92%
    05:00 +11°C° 0.1 mm 0 mps 559 mmHg 91%
    06:00 +12°C° 0.1 mm 0 mps 560 mmHg 90%
    07:00 +12°C° 0 mm 0 mps 561 mmHg 92%
    08:00 +13°C° 0.6 mm 0 mps 561 mmHg 91%
    09:00 +13°C° 0.6 mm 0 mps 562 mmHg 90%
    10:00 +15°C° 0.6 mm 1 mps 562 mmHg 90%
    11:00 +15°C° 0.7 mm 1 mps 562 mmHg 89%
    12:00 +15°C° 0.7 mm 1 mps 561 mmHg 89%
    13:00 +15°C° 0.7 mm 1 mps 560 mmHg 89%
    14:00 +16°C° 0.5 mm 1 mps 560 mmHg 88%
    15:00 +16°C° 0.5 mm 1 mps 559 mmHg 87%
    16:00 +16°C° 0.5 mm 1 mps 559 mmHg 86%
    17:00 +15°C° 0.1 mm 1 mps 559 mmHg 88%
    18:00 +14°C° 0.1 mm 1 mps 559 mmHg 90%
    19:00 +12°C° 0.1 mm 0 mps 559 mmHg 92%
    20:00 +13°C° 0.1 mm 1 mps 559 mmHg 91%
    21:00 +13°C° 0.1 mm 1 mps 560 mmHg 90%
    22:00 +12°C° 0.1 mm 1 mps 560 mmHg 89%
    23:00 +12°C° 0.2 mm 1 mps 560 mmHg 89%

    Tomorrow, 14 November, Thursday

    Time Temperature Precipitation Wind Pressure Humidity
    00:00 +12°C° 0.2 mm 1 mps 559 mmHg 89%
    01:00 +12°C° 0.2 mm 1 mps 559 mmHg 89%
    02:00 +12°C° 0.1 mm 1 mps 559 mmHg 89%
    03:00 +11°C° 0.1 mm 1 mps 559 mmHg 89%
    04:00 +11°C° 0.1 mm 1 mps 559 mmHg 89%
    05:00 +12°C° 0 mm 1 mps 560 mmHg 87%
    06:00 +13°C° 0 mm 1 mps 560 mmHg 85%
    07:00 +12°C° 0 mm 0 mps 561 mmHg 83%
    08:00 +15°C° 0.1 mm 1 mps 562 mmHg 78%
    09:00 +18°C° 0.1 mm 1 mps 563 mmHg 73%
    10:00 +18°C° 0.1 mm 2 mps 564 mmHg 68%
    11:00 +18°C° 0.9 mm 2 mps 563 mmHg 75%
    12:00 +17°C° 0.9 mm 2 mps 562 mmHg 82%
    13:00 +16°C° 0.9 mm 2 mps 561 mmHg 88%
    14:00 +16°C° 1 mm 1 mps 560 mmHg 88%
    15:00 +16°C° 1 mm 1 mps 560 mmHg 89%
    16:00 +16°C° 1 mm 1 mps 560 mmHg 89%
    17:00 +15°C° 1.6 mm 1 mps 560 mmHg 90%
    18:00 +14°C° 1.6 mm 1 mps 560 mmHg 92%
    19:00 +14°C° 1.6 mm 1 mps 560 mmHg 93%
    20:00 +13°C° 2.3 mm 1 mps 560 mmHg 93%
    21:00 +13°C° 2.3 mm 1 mps 560 mmHg 93%
    22:00 +13°C° 2.3 mm 1 mps 561 mmHg 93%
    23:00 +13°C° 0.5 mm 1 mps 560 mmHg 92%

    Day after tomorrow, 15 November, Friday

    Time Temperature Precipitation Wind Pressure Humidity
    00:00 +12°C° 0.5 mm 1 mps 560 mmHg 91%
    01:00 +11°C° 0.5 mm 0 mps 560 mmHg 91%
    02:00 +11°C° 0.1 mm 0 mps 560 mmHg 91%
    03:00 +11°C° 0.1 mm 0 mps 560 mmHg 92%
    04:00 +11°C° 0.1 mm 0 mps 559 mmHg 93%
    05:00 +11°C° 0 mm 0 mps 560 mmHg 92%
    06:00 +12°C° 0 mm 0 mps 560 mmHg 91%
    07:00 +12°C° 0 mm 0 mps 561 mmHg 90%
    08:00 +14°C° 0.1 mm 1 mps 562 mmHg 84%
    09:00 +16°C° 0.1 mm 1 mps 563 mmHg 77%
    10:00 +18°C° 0.1 mm 2 mps 563 mmHg 71%
    11:00 +18°C° 0.7 mm 2 mps 563 mmHg 74%
    12:00 +18°C° 0.7 mm 2 mps 562 mmHg 77%
    13:00 +18°C° 0.7 mm 2 mps 561 mmHg 80%
    14:00 +17°C° 1.1 mm 2 mps 560 mmHg 82%
    15:00 +18°C° 1.1 mm 1 mps 560 mmHg 83%
    16:00 +16°C° 1.1 mm 1 mps 559 mmHg 85%
    17:00 +15°C° 0.6 mm 1 mps 559 mmHg 87%
    18:00 +14°C° 0.6 mm 1 mps 559 mmHg 90%
    19:00 +12°C° 0.6 mm 0 mps 559 mmHg 92%
    20:00 +13°C° 0.2 mm 1 mps 559 mmHg 91%
    21:00 +13°C° 0.2 mm 1 mps 560 mmHg 91%
    22:00 +13°C° 0.2 mm 1 mps 560 mmHg 90%
    23:00 +13°C° 0.1 mm 1 mps 560 mmHg 91%

    16 November, Saturday

    Time Temperature Precipitation Wind Pressure Humidity
    00:00 +12°C° 0.1 mm 1 mps 559 mmHg 91%
    01:00 +12°C° 0.1 mm 1 mps 559 mmHg 92%
    02:00 +12°C° 0.2 mm 1 mps 559 mmHg 92%
    03:00 +12°C° 0.2 mm 1 mps 559 mmHg 93%
    04:00 +12°C° 0.2 mm 1 mps 559 mmHg 93%
    05:00 +12°C° 0.1 mm 1 mps 559 mmHg 92%
    06:00 +13°C° 0.1 mm 1 mps 559 mmHg 91%
    07:00 +13°C° 0.1 mm 1 mps 560 mmHg 90%
    08:00 +15°C° 0 mm 1 mps 561 mmHg 83%
    09:00 +16°C° 0 mm 2 mps 562 mmHg 75%
    10:00 +18°C° 0 mm 2 mps 563 mmHg 68%
    11:00 +18°C° 0.6 mm 2 mps 562 mmHg 70%
    12:00 +18°C° 0.6 mm 2 mps 561 mmHg 73%
    13:00 +18°C° 0.6 mm 2 mps 560 mmHg 75%
    14:00 +18°C° 0.9 mm 2 mps 560 mmHg 79%
    15:00 +17°C° 0.9 mm 2 mps 559 mmHg 82%
    16:00 +18°C° 0.9 mm 1 mps 559 mmHg 85%
    17:00 +15°C° 0.7 mm 1 mps 558 mmHg 87%
    18:00 +14°C° 0.7 mm 1 mps 558 mmHg 89%
    19:00 +12°C° 0.7 mm 0 mps 558 mmHg 92%
    20:00 +11°C° 0.2 mm 0 mps 558 mmHg 91%
    21:00 +12°C° 0.2 mm 1 mps 558 mmHg 91%
    22:00 +12°C° 0.2 mm 1 mps 559 mmHg 91%
    23:00 +11°C° 0.1 mm 1 mps 558 mmHg 91%

    17 November, Sunday

    Time Temperature Precipitation Wind Pressure Humidity
    00:00 +11°C° 0.1 mm 1 mps 558 mmHg 91%
    01:00 +11°C° 0.1 mm 1 mps 557 mmHg 91%
    02:00 +11°C° 0.3 mm 1 mps 557 mmHg 91%
    03:00 +10°C° 0.3 mm 0 mps 557 mmHg 90%
    04:00 +10°C° 0.3 mm 0 mps 558 mmHg 90%
    05:00 +11°C° 0.1 mm 0 mps 558 mmHg 90%
    06:00 +11°C° 0.1 mm 0 mps 559 mmHg 90%
    07:00 +11°C° 0.1 mm 0 mps 559 mmHg 89%
    08:00 +14°C° 0.2 mm 1 mps 560 mmHg 86%
    09:00 +15°C° 0.2 mm 1 mps 560 mmHg 82%
    10:00 +16°C° 0.2 mm 1 mps 561 mmHg 78%
    11:00 +18°C° 0.5 mm 1 mps 561 mmHg 78%
    12:00 +17°C° 0.5 mm 2 mps 560 mmHg 77%
    13:00 +18°C° 0.5 mm 2 mps 560 mmHg 77%
    14:00 +17°C° 0.8 mm 2 mps 559 mmHg 80%
    15:00 +18°C° 0.8 mm 1 mps 559 mmHg 83%
    16:00 +16°C° 0.8 mm 1 mps 558 mmHg 87%
    17:00 +15°C° 0.6 mm 1 mps 558 mmHg 89%
    18:00 +13°C° 0.6 mm 0 mps 558 mmHg 91%
    19:00 +12°C° 0.6 mm 0 mps 558 mmHg 93%
    20:00 +11°C° 0.2 mm 0 mps 558 mmHg 92%
    21:00 +12°C° 0.2 mm 1 mps 558 mmHg 92%
    22:00 +12°C° 0.2 mm 1 mps 559 mmHg 92%
    23:00 +11°C° 0.1 mm 1 mps 558 mmHg 92%

    18 November, Monday

    Time Temperature Precipitation Wind Pressure Humidity
    00:00 +11°C° 0.1 mm 1 mps 558 mmHg 92%
    01:00 +11°C° 0.1 mm 1 mps 558 mmHg 92%
    02:00 +11°C° 0.1 mm 1 mps 557 mmHg 92%
    03:00 +10°C° 0.1 mm 1 mps 557 mmHg 93%
    04:00 +9°C° 0.1 mm 0 mps 557 mmHg 93%
    05:00 +10°C° 0 mm 0 mps 558 mmHg 92%
    06:00 +11°C° 0 mm 0 mps 559 mmHg 91%
    07:00 +11°C° 0 mm 0 mps 560 mmHg 90%
    08:00 +14°C° 0.2 mm 1 mps 560 mmHg 87%
    09:00 +15°C° 0.2 mm 1 mps 561 mmHg 83%
    10:00 +16°C° 0.2 mm 1 mps 562 mmHg 80%
    11:00 +16°C° 0.7 mm 1 mps 561 mmHg 82%
    12:00 +18°C° 0.7 mm 1 mps 560 mmHg 83%
    13:00 +17°C° 0.7 mm 2 mps 560 mmHg 84%
    14:00 +16°C° 0.6 mm 1 mps 559 mmHg 86%
    15:00 +16°C° 0.6 mm 1 mps 559 mmHg 88%
    16:00 +16°C° 0.6 mm 1 mps 558 mmHg 89%
    17:00 +15°C° 0.3 mm 1 mps 558 mmHg 90%
    18:00 +13°C° 0.3 mm 1 mps 558 mmHg 91%
    19:00 +11°C° 0.3 mm 0 mps 558 mmHg 92%
    20:00 +11°C° 0.2 mm 0 mps 559 mmHg 92%
    21:00 +12°C° 0.2 mm 1 mps 559 mmHg 92%
    22:00 +12°C° 0.2 mm 1 mps 559 mmHg 91%
    23:00 +11°C° 0 mm 1 mps 559 mmHg 91%
    Show more